When you browse on this site, cookies collect data to enhance your experience and personalize the content and advertising you see.
Visit our Privacy Policy to learn more. By continuing to use the site, you agree to this use of cookies and data.
  • In Austria
  • List of Countries
  • For 7 days
  • Water Temperature
  • Weather Map
  • News
  • Weather Widgets
  • user-avatar
    Login

    Hourly Weather Pachuquilla

    Today, 17 November, Sunday

    Time Temperature Precipitation Wind Pressure Humidity
    00:00 +10°C° 0 mm 0 mps 571 mmHg 81%
    01:00 +10°C° 0 mm 0 mps 570 mmHg 79%
    02:00 +10°C° 0 mm 0 mps 570 mmHg 77%
    03:00 +10°C° 0 mm 0 mps 570 mmHg 78%
    04:00 +11°C° 0 mm 1 mps 570 mmHg 79%
    05:00 +10°C° 0 mm 1 mps 570 mmHg 80%
    06:00 +11°C° 0 mm 0 mps 571 mmHg 72%
    07:00 +13°C° 0 mm 0 mps 572 mmHg 65%
    08:00 +15°C° 0 mm 0 mps 573 mmHg 58%
    09:00 +18°C° 0 mm 1 mps 574 mmHg 53%
    10:00 +18°C° 0 mm 2 mps 574 mmHg 48%
    11:00 +20°C° 0 mm 2 mps 574 mmHg 43%
    12:00 +20°C° 0 mm 3 mps 574 mmHg 44%
    13:00 +20°C° 0 mm 4 mps 573 mmHg 45%
    14:00 +20°C° 0 mm 4 mps 572 mmHg 46%
    15:00 +18°C° 0 mm 4 mps 572 mmHg 54%
    16:00 +17°C° 0 mm 3 mps 571 mmHg 62%
    17:00 +14°C° 0 mm 3 mps 571 mmHg 70%
    18:00 +14°C° 0 mm 3 mps 571 mmHg 72%
    19:00 +14°C° 0 mm 2 mps 572 mmHg 73%
    20:00 +14°C° 0 mm 2 mps 572 mmHg 75%
    21:00 +13°C° 0 mm 1 mps 572 mmHg 74%
    22:00 +13°C° 0 mm 1 mps 572 mmHg 74%
    23:00 +12°C° 0 mm 0 mps 571 mmHg 73%

    Tomorrow, 18 November, Monday

    Time Temperature Precipitation Wind Pressure Humidity
    00:00 +11°C° 0 mm 0 mps 571 mmHg 73%
    01:00 +11°C° 0 mm 0 mps 571 mmHg 73%
    02:00 +11°C° 0 mm 0 mps 570 mmHg 73%
    03:00 +10°C° 0 mm 0 mps 570 mmHg 74%
    04:00 +10°C° 0 mm 0 mps 570 mmHg 76%
    05:00 +10°C° 0 mm 0 mps 570 mmHg 78%
    06:00 +11°C° 0 mm 0 mps 571 mmHg 70%
    07:00 +13°C° 0 mm 0 mps 572 mmHg 62%
    08:00 +15°C° 0 mm 0 mps 573 mmHg 55%
    09:00 +18°C° 0 mm 1 mps 573 mmHg 51%
    10:00 +19°C° 0 mm 1 mps 573 mmHg 48%
    11:00 +20°C° 0 mm 1 mps 573 mmHg 44%
    12:00 +20°C° 0 mm 2 mps 573 mmHg 45%
    13:00 +20°C° 0 mm 2 mps 573 mmHg 46%
    14:00 +20°C° 0 mm 3 mps 572 mmHg 47%
    15:00 +19°C° 0 mm 3 mps 572 mmHg 57%
    16:00 +17°C° 0 mm 3 mps 571 mmHg 67%
    17:00 +14°C° 0 mm 3 mps 571 mmHg 77%
    18:00 +15°C° 0.1 mm 2 mps 571 mmHg 80%
    19:00 +14°C° 0.1 mm 2 mps 571 mmHg 83%
    20:00 +13°C° 0.1 mm 1 mps 571 mmHg 86%
    21:00 +13°C° 0 mm 1 mps 571 mmHg 84%
    22:00 +13°C° 0 mm 1 mps 571 mmHg 81%
    23:00 +13°C° 0 mm 1 mps 571 mmHg 79%

    Day after tomorrow, 19 November, Tuesday

    Time Temperature Precipitation Wind Pressure Humidity
    00:00 +13°C° 0 mm 1 mps 570 mmHg 79%
    01:00 +13°C° 0 mm 1 mps 570 mmHg 79%
    02:00 +12°C° 0 mm 1 mps 569 mmHg 79%
    03:00 +12°C° 0 mm 1 mps 569 mmHg 81%
    04:00 +11°C° 0 mm 0 mps 569 mmHg 82%
    05:00 +11°C° 0 mm 0 mps 569 mmHg 83%
    06:00 +12°C° 0 mm 0 mps 571 mmHg 77%
    07:00 +14°C° 0 mm 0 mps 572 mmHg 71%
    08:00 +15°C° 0 mm 0 mps 573 mmHg 65%
    09:00 +19°C° 0 mm 1 mps 573 mmHg 60%
    10:00 +20°C° 0 mm 1 mps 573 mmHg 55%
    11:00 +20°C° 0 mm 2 mps 574 mmHg 49%
    12:00 +20°C° 0 mm 2 mps 573 mmHg 50%
    13:00 +20°C° 0 mm 3 mps 573 mmHg 51%
    14:00 +20°C° 0 mm 3 mps 572 mmHg 52%
    15:00 +19°C° 0.1 mm 3 mps 572 mmHg 60%
    16:00 +17°C° 0.1 mm 2 mps 571 mmHg 67%
    17:00 +16°C° 0.1 mm 2 mps 571 mmHg 75%
    18:00 +15°C° 0 mm 2 mps 571 mmHg 78%
    19:00 +15°C° 0 mm 1 mps 571 mmHg 82%
    20:00 +14°C° 0 mm 1 mps 571 mmHg 85%
    21:00 +14°C° 0 mm 1 mps 571 mmHg 84%
    22:00 +14°C° 0 mm 1 mps 571 mmHg 82%
    23:00 +13°C° 0 mm 1 mps 571 mmHg 80%

    20 November, Wednesday

    Time Temperature Precipitation Wind Pressure Humidity
    00:00 +13°C° 0 mm 1 mps 570 mmHg 81%
    01:00 +13°C° 0 mm 1 mps 570 mmHg 82%
    02:00 +13°C° 0 mm 1 mps 570 mmHg 82%
    03:00 +13°C° 0 mm 1 mps 570 mmHg 83%
    04:00 +13°C° 0 mm 1 mps 570 mmHg 83%
    05:00 +12°C° 0 mm 1 mps 570 mmHg 84%
    06:00 +14°C° 0 mm 1 mps 571 mmHg 78%
    07:00 +15°C° 0 mm 1 mps 572 mmHg 73%
    08:00 +18°C° 0 mm 1 mps 573 mmHg 67%
    09:00 +19°C° 0 mm 1 mps 573 mmHg 59%
    10:00 +21°C° 0 mm 1 mps 574 mmHg 51%
    11:00 +23°C° 0 mm 1 mps 574 mmHg 44%
    12:00 +23°C° 0 mm 1 mps 574 mmHg 42%
    13:00 +23°C° 0 mm 2 mps 573 mmHg 40%
    14:00 +24°C° 0 mm 2 mps 573 mmHg 38%
    15:00 +21°C° 0 mm 2 mps 573 mmHg 46%
    16:00 +20°C° 0 mm 2 mps 572 mmHg 54%
    17:00 +18°C° 0 mm 2 mps 572 mmHg 63%
    18:00 +17°C° 0.1 mm 2 mps 572 mmHg 66%
    19:00 +16°C° 0.1 mm 2 mps 572 mmHg 70%
    20:00 +16°C° 0.1 mm 1 mps 572 mmHg 73%
    21:00 +16°C° 0 mm 1 mps 572 mmHg 72%
    22:00 +15°C° 0 mm 1 mps 572 mmHg 71%
    23:00 +15°C° 0 mm 1 mps 571 mmHg 70%

    21 November, Thursday

    Time Temperature Precipitation Wind Pressure Humidity
    00:00 +15°C° 0 mm 1 mps 571 mmHg 70%
    01:00 +14°C° 0 mm 1 mps 571 mmHg 70%
    02:00 +14°C° 0 mm 1 mps 570 mmHg 70%
    03:00 +14°C° 0 mm 1 mps 571 mmHg 71%
    04:00 +12°C° 0 mm 0 mps 571 mmHg 73%
    05:00 +12°C° 0 mm 0 mps 571 mmHg 74%
    06:00 +14°C° 0 mm 0 mps 572 mmHg 69%
    07:00 +16°C° 0 mm 1 mps 573 mmHg 65%
    08:00 +19°C° 0 mm 1 mps 574 mmHg 60%
    09:00 +20°C° 0 mm 1 mps 574 mmHg 53%
    10:00 +22°C° 0 mm 1 mps 574 mmHg 47%
    11:00 +23°C° 0 mm 1 mps 575 mmHg 40%
    12:00 +23°C° 0 mm 1 mps 574 mmHg 39%
    13:00 +24°C° 0 mm 1 mps 574 mmHg 37%
    14:00 +24°C° 0 mm 2 mps 573 mmHg 36%
    15:00 +21°C° 0 mm 2 mps 573 mmHg 45%
    16:00 +20°C° 0 mm 2 mps 572 mmHg 53%
    17:00 +18°C° 0 mm 2 mps 572 mmHg 62%
    18:00 +18°C° 0 mm 2 mps 572 mmHg 65%
    19:00 +18°C° 0 mm 1 mps 572 mmHg 67%
    20:00 +16°C° 0 mm 1 mps 572 mmHg 70%
    21:00 +16°C° 0 mm 1 mps 572 mmHg 69%
    22:00 +16°C° 0 mm 1 mps 572 mmHg 67%
    23:00 +15°C° 0 mm 1 mps 571 mmHg 66%

    22 November, Friday

    Time Temperature Precipitation Wind Pressure Humidity
    00:00 +15°C° 0 mm 1 mps 571 mmHg 68%
    01:00 +14°C° 0 mm 1 mps 570 mmHg 70%
    02:00 +14°C° 0 mm 1 mps 570 mmHg 72%
    03:00 +14°C° 0 mm 1 mps 570 mmHg 74%
    04:00 +14°C° 0 mm 1 mps 570 mmHg 77%
    05:00 +13°C° 0 mm 1 mps 570 mmHg 79%
    06:00 +15°C° 0 mm 1 mps 571 mmHg 73%
    07:00 +16°C° 0 mm 1 mps 572 mmHg 68%
    08:00 +19°C° 0 mm 1 mps 573 mmHg 63%
    09:00 +20°C° 0 mm 1 mps 573 mmHg 57%
    10:00 +20°C° 0 mm 2 mps 574 mmHg 52%
    11:00 +23°C° 0 mm 2 mps 574 mmHg 47%
    12:00 +23°C° 0.1 mm 2 mps 573 mmHg 47%
    13:00 +22°C° 0.1 mm 3 mps 573 mmHg 47%
    14:00 +22°C° 0.1 mm 3 mps 572 mmHg 46%
    15:00 +20°C° 0.1 mm 3 mps 572 mmHg 53%
    16:00 +19°C° 0.1 mm 2 mps 571 mmHg 59%
    17:00 +18°C° 0.1 mm 2 mps 571 mmHg 66%
    18:00 +17°C° 0.5 mm 2 mps 571 mmHg 69%
    19:00 +16°C° 0.5 mm 2 mps 571 mmHg 73%
    20:00 +15°C° 0.5 mm 1 mps 571 mmHg 76%
    21:00 +15°C° 0 mm 1 mps 571 mmHg 75%
    22:00 +15°C° 0 mm 1 mps 571 mmHg 75%
    23:00 +15°C° 0 mm 1 mps 571 mmHg 74%
    Show more